Miscellaneous Local Product
Issued by NWS Hastings, NE

Home | Current Version | Previous Version | Text Only | Print | Product List | Glossary On
Versions: 1 2 3 4 5 6 7 8 9 10 11 12 13 14 15 16 17 18 19 20 21 22 23 24 25 26 27 28 29 30 31 32 33 34 35 36 37 38 39 40 41 42 43 44 45 46 47 48 49 50
000
AXUS43 KGID 272002
MISGRI

GID CWA HOURLY WEATHER ROUNDUP
NATIONAL WEATHER SERVICE HASTINGS NE
300 PM CDT THU AUG 27 2015

NOTE: "FAIR" INDICATES FEW OR NO CLOUDS BELOW 12,000 FEET WITH NO
SIGNIFICANT WEATHER AND/OR OBSTRUCTIONS TO VISIBILITY.

...SOUTH CENTRAL NEBRASKA...

CITY           SKY/WX    TMP DP  RH WIND       PRES   REMARKS
GRAND ISLAND   CLOUDY    83  68  60 SE18G28   29.90F
HASTINGS       CLOUDY    83  70  64 SE18G26   29.89F
KEARNEY        CLOUDY    81  70  69 SE12      29.90R
ORD            CLOUDY    80  69  69 SE15      29.87F
YORK           CLOUDY    82  72  69 S18G24    29.92F
AURORA         CLOUDY    84  69  60 S18G28    29.90F
LEXINGTON      PTSUNNY   84  72  67 E16G22    29.87F
HOLDREGE       CLOUDY    82  67  61 SE16      29.85F
HEBRON         CLOUDY    85  66  52 S21G28    29.92F

...NEBRASKA PANHANDLE...

CITY           SKY/WX    TMP DP  RH WIND       PRES   REMARKS
CHADRON        PTSUNNY   77  55  46 N14       30.03R
ALLIANCE       SUNNY     85  57  38 N20G30    30.00F
SCOTTSBLUFF    MOSUNNY   86  55  34 N16G24    30.03S
SIDNEY         MOSUNNY   87  60  40 N18G29    30.01F

...WESTERN AND NORTH CENTRAL NEBRASKA...

CITY           SKY/WX    TMP DP  RH WIND       PRES   REMARKS
VALENTINE      NOT AVBL
AINSWORTH      PTSUNNY   81  69  67 NE10      29.92F
ONEILL         PTSUNNY   83  69  64 SE10      29.91F
BROKEN BOW     LGT RAIN  79  70  74 SE9       29.90R
IMPERIAL       SUNNY     90  56  31 N16       29.90F
NORTH PLATTE   MOSUNNY   85  65  51 E6        29.88S
MCCOOK         MOSUNNY   92  55  28 W10       29.84F HX  90

...EASTERN NEBRASKA...

CITY           SKY/WX    TMP DP  RH WIND       PRES   REMARKS
NORFOLK        PTSUNNY   79  67  66 SE18G26   29.92R
SO SIOUX CITY  PTSUNNY   80  65  59 S21G29    29.94F
TEKAMAH        PTSUNNY   80  68  66 SE13G22   29.95F
COLUMBUS       PTSUNNY   81  66  61 SE8G18    29.92R
ALBION         CLOUDY    79  67  66 S14G22    29.89F
OMAHA EPPLEY   PTSUNNY   81  66  60 S26G32    29.96F
OFFUTT AFB     SUNNY     81  66  60 SE18      29.96F
MILLARD        MOSUNNY   79  67  68 SE15G22   29.96F
LINCOLN        PTSUNNY   85  69  58 SE25G31   29.93F
NEBRASKA CITY  SUNNY     80  60  51 S21G26    29.99F
BEATRICE       PTSUNNY   82  67  60 SE18      29.95S
FALLS CITY     SUNNY     80  67  64 S23G30    30.01F

...NORTHERN KANSAS...

CITY           SKY/WX    TMP DP  RH WIND       PRES   REMARKS
GOODLAND       MOSUNNY   91  50  24 NW16G23   29.95F
HILL CITY      CLOUDY    94  58  29 S16G23    29.85F HX  93
NORTON         CLEAR     90  52  27 S12       29.84S
PHILLIPSBURG   RAIN      95  59  30 SE3       29.84F HX  94
SMITH CENTER   SUNNY     95  63  34 SE20G25   29.86S HX  96
HAYS           CLOUDY   102  57  22 SW23G35   29.86F HX 101
RUSSELL        CLOUDY    99  60  27 S26G35    29.87F HX  99
CONCORDIA      CLOUDY    87  67  51 S20G33    29.93F HX  90
SALINA         PTSUNNY   86  66  51 S26G37    29.94F
TOPEKA         PTSUNNY   79  68  69 E15       30.06S



USA.gov is the U.S. government's official web portal to all federal, state and local government web resources and services.